Location: Epalinges
(46.5518°N, 6.6683°E)
Time: 18:49:06
(UTC+00:00)

Cosmos 1076 Rocket - Pass Details

Date: 20 June 2021
Orbit: 590 x 611 km, 82.5° (Epoch: 23 July)

Event Time Altitude Azimuth Distance (km) Brightness Sun altitude
Exits shadow 01:49:43 22° 225° (SW) 1,325 4.7 -13.7°
Maximum altitude 01:52:04 41° 284° (WNW) 867 4.1 -13.4°
Drops below altitude 10° 01:56:06 10° 356° (N) 1,932 6.9 -13.1°
Sets 01:58:26 0° 3° (N) 2,840 8.1 -12.9°
